Flag for Trinidad and Tobago Weather past 2 weeks in Scarborough, Trinidad and Tobago

Now
81 °F

Scattered clouds.


Feels Like: 85 °F
Forecast: 81 / 83 °F
Wind: 10 mph from East

Location: Crown Pt./ Scarborou

Current Time: Jul 23, 2014 at 7:57:45 AM

Latest Report: Jul 23, 2014 at 7:00 AM


Visibility: N/A

Pressure: 29.98 "Hg

Humidity: 79%

Dew point: 73 °F

Location of ScarboroughLocation

Historic Weather in Scarborough — Graph

°F

Scarborough temperature yesterday

Maximum temperature yesterday: 88 °F (at 1:00 PM)
Minimum temperature yesterday: 77 °F (at 4:00 AM)
Average temperature yesterday: 80 °F

Past Weeks' High & Low Weather Summary

 TemperatureHumidityPressure
High90 °F (Jul 8, 12:00 PM)94% (Jul 15, 2:00 AM)30.09 "Hg (Jul 15, 2:00 AM)
Low73 °F (Jul 10, 11:00 AM)52% (Jul 9, 1:00 PM)29.92 "Hg (Jul 10, 5:00 PM)
Average81 °F78%30.01 "Hg
* Reported Jul 8 6:00 AM — Jul 23 6:00 AM, Scarborough, Weather by CustomWeather, © 2014

Note: Actual official high and low records may vary slightly from our data, if they occured in-between our weather recording intervals... More about our weather records

Advertising

Scarborough weather history for previous 24 hours

 ConditionsComfort  
Time TempWeatherWind HumidityBarometerVisibility
6:00 AM
Jul 23
79 °FScattered clouds.5 mph84%29.98 "HgN/A
5:00 AM79 °FPassing clouds.7 mph84%29.95 "HgN/A
1:00 AM77 °FPassing clouds.3 mph94%29.98 "HgN/A
12:00 AM77 °FPartly cloudy.9 mph83%30.01 "HgN/A
11:00 PM
Jul 22
79 °FPassing clouds.10 mph89%30.01 "HgN/A
10:00 PM79 °FPassing clouds.8 mph89%30.01 "HgN/A
9:00 PM81 °FPassing clouds.13 mph79%30.01 "HgN/A
8:00 PM79 °FPassing clouds.No wind94%30.01 "HgN/A
7:00 PM79 °FSprinkles. Passing clouds.6 mph84%29.98 "HgN/A
1:00 PM88 °FScattered showers. Broken clouds.17 mph66%30.01 "Hg5 mi
12:00 PM84 °FPartly sunny.16 mph74%30.01 "HgN/A
11:00 AM82 °FScattered showers. Partly sunny.13 mph79%30.01 "Hg6 mi
10:00 AM84 °FScattered showers. Broken clouds.17 mph74%30.01 "Hg4 mi
9:00 AM86 °FPassing clouds.17 mph70%30.01 "HgN/A
8:00 AM82 °FPassing clouds.14 mph79%30.01 "HgN/A
7:00 AM79 °FScattered clouds.No wind84%30.01 "HgN/A
Weather by CustomWeather, © 2014

See weather overviewHow to use our weather pages